Location: Cluj-Napoca
(46.7712°N, 23.6236°E)
Time: 10:53:08
(UTC+03:00)

ISS - Pass Details

Date: 08 May 2021
Orbit: 417 x 422 km, 51.6° (Epoch: 15 May)

Event Time Altitude Azimuth Distance (km) Brightness Sun altitude
Exits shadow 03:49:24 18° 293° (WNW) 1,118 -1.8 -18.0°
Maximum altitude 03:51:29 36° 353° (N) 685 -2.3 -17.8°
Drops below altitude 10° 03:54:39 10° 62° (ENE) 1,507 0.1 -17.5°
Sets 03:56:51 0° 71° (ENE) 2,373 1.1 -17.2°
